User: anonymous   Login
Location: ????????
(54.8751°N, 38.5756°E)
Time: 16:35:09
(UTC+00:00)
Language:

Cosmos 2221 - Orbit

View from above orbital plane
View from above orbital plane
View from above satellite
View from above satellite

Ground track
Ground track

The orbit data is extracted from the following two-line orbital elements,

1 22236U 92080A   24177.44216675  .00002026  00000-0  19780-3 0  9998
2 22236  82.5058 153.2211 0017235 115.5355 244.7649 14.91827480708918
Epoch (UTC): 25 June 2024 10:36:43
Eccentricity: 0.0017235
inclination: 82.5058°
perigee height: 580 km
apogee height: 604 km
right ascension of ascending node: 153.2211°
argument of perigee: 115.5355°
revolutions per day: 14.91827480
mean anomaly at epoch: 244.7649°
orbit number at epoch: 70891

The dashed part of the orbit path shows where the satellite is in the earth's shadow,  

DLR